,,Stat6,,Stat2,,Stat8,,Stat9,,Stat10,,Wind1,,Wind1,
time,status,PA1M_AVG,status,PR1M_SUM,status,RH1M_AVG,status,SR1M_AVG,status,TA1M_AVG,status,W1dAve1m,status,W1sAve1m,
2007-03-07, 00:00:00,VALID,916.444,VALID,0,VALID,97.2167,VALID,0.0849042,VALID,18.7364,VALID,103,VALID,0,
2007-03-07, 00:01:00,VALID,916.428,VALID,0,VALID,96.6318,VALID,0.0679233,VALID,18.6846,VALID,103,VALID,0.220022,
2007-03-07, 00:02:00,VALID,916.42,VALID,0,VALID,96.834,VALID,0.0679233,VALID,18.6424,VALID,103,VALID,0.378018,
2007-03-07, 00:03:00,VALID,916.418,VALID,0,VALID,96.8975,VALID,0.0849042,VALID,18.6454,VALID,103,VALID,0.035061,
2007-03-07, 00:04:00,VALID,916.408,VALID,0,VALID,96.7386,VALID,0.101885,VALID,18.6389,VALID,103,VALID,0,
2007-03-07, 00:05:00,VALID,916.395,VALID,0,VALID,96.6165,VALID,0.0679233,VALID,18.616,VALID,103,VALID,0,
2007-03-07, 00:06:00,VALID,916.376,VALID,0,VALID,96.5911,VALID,0.101885,VALID,18.6132,VALID,103,VALID,0.176067,
2007-03-07, 00:07:00,VALID,916.377,VALID,0,VALID,96.394,VALID,0.101885,VALID,18.6264,VALID,103,VALID,0.118459,
2007-03-07, 00:08:00,VALID,916.387,VALID,0,VALID,96.2834,VALID,0.101885,VALID,18.613,VALID,103,VALID,0,
2007-03-07, 00:09:00,VALID,916.387,VALID,0,VALID,96.1969,VALID,0.0509425,VALID,18.594,VALID,103,VALID,0,
2007-03-07, 00:10:00,VALID,916.382,VALID,0,VALID,96.3139,VALID,0.0679233,VALID,18.5745,VALID,103,VALID,0,
2007-03-07, 00:11:00,VALID,916.353,VALID,0,VALID,96.2961,VALID,0.0849042,VALID,18.5576,VALID,103,VALID,0,
2007-03-07, 00:12:00,VALID,916.344,VALID,0,VALID,96.3126,VALID,0.101885,VALID,18.5708,VALID,103,VALID,0,
2007-03-07, 00:13:00,VALID,916.34,VALID,0,VALID,96.1765,VALID,0.0509425,VALID,18.5815,VALID,103,VALID,0,
2007-03-07, 00:14:00,VALID,916.327,VALID,0,VALID,95.9972,VALID,0,VALID,18.5819,VALID,103,VALID,0,
2007-03-07, 00:15:00,VALID,916.323,VALID,0,VALID,95.7823,VALID,-0.0339617,VALID,18.5949,VALID,103,VALID,0,
2007-03-07, 00:16:00,VALID,916.313,VALID,0,VALID,95.7048,VALID,0,VALID,18.5947,VALID,103,VALID,0,
2007-03-07, 00:17:00,VALID,916.319,VALID,0,VALID,95.617,VALID,-0.0339617,VALID,18.6049,VALID,103,VALID,0,
2007-03-07, 00:18:00,VALID,916.331,VALID,0,VALID,95.4784,VALID,-0.0509425,VALID,18.5882,VALID,103,VALID,0,
2007-03-07, 00:19:00,VALID,916.317,VALID,0,VALID,95.3742,VALID,-0.0339617,VALID,18.5787,VALID,103,VALID,0,
2007-03-07, 00:20:00,VALID,916.313,VALID,0,VALID,95.3907,VALID,0,VALID,18.5657,VALID,103,VALID,0,
2007-03-07, 00:21:00,VALID,916.299,VALID,0,VALID,95.322,VALID,-0.0339617,VALID,18.5599,VALID,103,VALID,0,
2007-03-07, 00:22:00,VALID,916.268,VALID,0,VALID,95.2368,VALID,-0.0169808,VALID,18.5697,VALID,103,VALID,0,
2007-03-07, 00:23:00,VALID,916.269,VALID,0,VALID,95.3004,VALID,-0.0169808,VALID,18.5692,VALID,103,VALID,0,
2007-03-07, 00:24:00,VALID,916.269,VALID,0,VALID,95.2063,VALID,-0.0339617,VALID,18.5919,VALID,103,VALID,0,
2007-03-07, 00:25:00,VALID,916.273,VALID,0,VALID,94.9533,VALID,-0.0339617,VALID,18.6014,VALID,121,VALID,0.505682,
2007-03-07, 00:26:00,VALID,916.271,VALID,0,VALID,94.9151,VALID,-0.0339617,VALID,18.569,VALID,146,VALID,0.492001,
2007-03-07, 00:27:00,VALID,916.264,VALID,0,VALID,95.3271,VALID,-0.0169808,VALID,18.5725,VALID,151,VALID,0.397104,
2007-03-07, 00:28:00,VALID,916.259,VALID,0,VALID,94.9278,VALID,-0.0509425,VALID,18.5894,VALID,151,VALID,0.0268111,
2007-03-07, 00:29:00,VALID,916.237,VALID,0,VALID,94.9062,VALID,-0.0169808,VALID,18.5725,VALID,151,VALID,0,
2007-03-07, 00:30:00,VALID,916.23,VALID,0,VALID,94.1878,VALID,-0.0679233,VALID,18.5437,VALID,151,VALID,0,
2007-03-07, 00:31:00,VALID,916.232,VALID,0,VALID,94.704,VALID,-0.0169808,VALID,18.5039,VALID,151,VALID,0,
2007-03-07, 00:32:00,VALID,916.224,VALID,0,VALID,94.8019,VALID,-0.0169808,VALID,18.5268,VALID,151,VALID,0,
2007-03-07, 00:33:00,VALID,916.219,VALID,0,VALID,94.7663,VALID,-0.0169808,VALID,18.5495,VALID,151,VALID,0,
2007-03-07, 00:34:00,VALID,916.18,VALID,0,VALID,94.835,VALID,-0.0169808,VALID,18.556,VALID,151,VALID,0,
2007-03-07, 00:35:00,VALID,916.151,VALID,0,VALID,94.8007,VALID,-0.0679233,VALID,18.5884,VALID,151,VALID,0.029154,
2007-03-07, 00:36:00,VALID,916.114,VALID,0,VALID,94.9164,VALID,-0.0339617,VALID,18.6016,VALID,105,VALID,0.423177,
2007-03-07, 00:37:00,VALID,916.073,VALID,0,VALID,94.863,VALID,0,VALID,18.6436,VALID,93,VALID,0.446646,
2007-03-07, 00:38:00,VALID,916.071,VALID,0,VALID,94.3581,VALID,0,VALID,18.6336,VALID,88,VALID,0.477344,
2007-03-07, 00:39:00,VALID,916.083,VALID,0,VALID,94.3047,VALID,-0.0339617,VALID,18.5889,VALID,80,VALID,0.452009,
2007-03-07, 00:40:00,VALID,916.098,VALID,0,VALID,94.6074,VALID,-0.0339617,VALID,18.5657,VALID,80,VALID,0.325707,
2007-03-07, 00:41:00,VALID,916.085,VALID,0,VALID,94.4751,VALID,-0.0169808,VALID,18.5463,VALID,80,VALID,0.212612,
2007-03-07, 00:42:00,VALID,916.078,VALID,0,VALID,94.6074,VALID,-0.0339617,VALID,18.5495,VALID,80,VALID,0.409091,
2007-03-07, 00:43:00,VALID,916.044,VALID,0,VALID,93.6511,VALID,0,VALID,18.4712,VALID,72,VALID,0.579578,
2007-03-07, 00:44:00,VALID,916.019,VALID,0,VALID,94.053,VALID,0.0509425,VALID,18.3179,VALID,30,VALID,0.986178,
2007-03-07, 00:45:00,VALID,916.005,VALID,0,VALID,96.0163,VALID,0.0339617,VALID,18.3253,VALID,21,VALID,1.03646,
2007-03-07, 00:46:00,VALID,915.995,VALID,0,VALID,96.4855,VALID,0.0339617,VALID,18.3994,VALID,24,VALID,0.980382,
2007-03-07, 00:47:00,VALID,915.992,VALID,0,VALID,96.6559,VALID,0,VALID,18.4455,VALID,29,VALID,0.998476,
2007-03-07, 00:48:00,VALID,915.992,VALID,0,VALID,96.483,VALID,0.0339617,VALID,18.5064,VALID,28,VALID,0.730183,
2007-03-07, 00:49:00,VALID,915.978,VALID,0,VALID,96.1778,VALID,0.0169808,VALID,18.5291,VALID,24,VALID,0.427269,
2007-03-07, 00:50:00,VALID,915.951,VALID,0,VALID,95.907,VALID,0.0509425,VALID,18.5553,VALID,23,VALID,0.424782,
2007-03-07, 00:51:00,VALID,915.939,VALID,0,VALID,95.79,VALID,0.0339617,VALID,18.5421,VALID,23,VALID,0.801897,
2007-03-07, 00:52:00,VALID,915.929,VALID,0,VALID,95.9909,VALID,0.0509425,VALID,18.6005,VALID,21,VALID,0.987351,
2007-03-07, 00:53:00,VALID,915.92,VALID,0,VALID,95.4695,VALID,0.0169808,VALID,18.688,VALID,13,VALID,0.693638,
2007-03-07, 00:54:00,VALID,915.896,VALID,0,VALID,95.3322,VALID,0.0339617,VALID,18.7631,VALID,12,VALID,0.734012,
2007-03-07, 00:55:00,VALID,915.886,VALID,0,VALID,94.924,VALID,0.0679233,VALID,18.8669,VALID,11,VALID,0.695871,
2007-03-07, 00:56:00,VALID,915.871,VALID,0,VALID,94.4179,VALID,0.0509425,VALID,18.8926,VALID,11,VALID,0.817649,
2007-03-07, 00:57:00,VALID,915.861,VALID,0,VALID,94.142,VALID,0.0679233,VALID,18.9185,VALID,20,VALID,0.96596,
2007-03-07, 00:58:00,VALID,915.855,VALID,0,VALID,93.9614,VALID,0.0509425,VALID,18.8829,VALID,25,VALID,0.802144,
2007-03-07, 00:59:00,VALID,915.856,VALID,0,VALID,94.2348,VALID,0.0339617,VALID,18.8432,VALID,24,VALID,0.55163,
2007-03-07, 01:00:00,VALID,915.853,VALID,0,VALID,94.3136,VALID,0.0339617,VALID,18.8277,VALID,24,VALID,0.541243,
2007-03-07, 01:01:00,VALID,915.84,VALID,0,VALID,94.6137,VALID,0.0169808,VALID,18.824,VALID,24,VALID,0.69077,
2007-03-07, 01:02:00,VALID,915.822,VALID,0,VALID,94.69,VALID,0.0509425,VALID,18.847,VALID,24,VALID,0.863021,
2007-03-07, 01:03:00,VALID,915.819,VALID,0,VALID,94.5489,VALID,0.0169808,VALID,18.8671,VALID,24,VALID,0.730841,
2007-03-07, 01:04:00,VALID,915.817,VALID,0,VALID,94.5425,VALID,0,VALID,18.8896,VALID,24,VALID,0.713663,
2007-03-07, 01:05:00,VALID,915.823,VALID,0,VALID,94.3658,VALID,0.0169808,VALID,18.9151,VALID,21,VALID,0.395433,
2007-03-07, 01:06:00,VALID,915.803,VALID,0,VALID,94.161,VALID,0.0509425,VALID,18.9183,VALID,4,VALID,0.256177,
2007-03-07, 01:07:00,VALID,915.806,VALID,0,VALID,93.9983,VALID,0.0169808,VALID,18.9218,VALID,1,VALID,0.397656,
2007-03-07, 01:08:00,VALID,915.8,VALID,0,VALID,93.9131,VALID,0.0339617,VALID,18.9146,VALID,4,VALID,0.439631,
2007-03-07, 01:09:00,VALID,915.787,VALID,0,VALID,93.8266,VALID,0.0509425,VALID,18.9153,VALID,7,VALID,0.280248,
2007-03-07, 01:10:00,VALID,915.757,VALID,0,VALID,93.866,VALID,0.0169808,VALID,18.9056,VALID,7,VALID,0.230378,
2007-03-07, 01:11:00,VALID,915.718,VALID,0,VALID,93.9283,VALID,0.0169808,VALID,18.9123,VALID,7,VALID,0.580208,
2007-03-07, 01:12:00,VALID,915.681,VALID,0,VALID,93.8673,VALID,0.0169808,VALID,18.8829,VALID,7,VALID,0.707126,
2007-03-07, 01:13:00,VALID,915.659,VALID,0,VALID,93.8025,VALID,-0.0509425,VALID,18.8254,VALID,7,VALID,0.764898,
2007-03-07, 01:14:00,VALID,915.648,VALID,0,VALID,94.2857,VALID,-0.0679233,VALID,18.8062,VALID,7,VALID,0.819618,
2007-03-07, 01:15:00,VALID,915.645,VALID,0,VALID,94.2081,VALID,-0.0849042,VALID,18.8359,VALID,5,VALID,0.735547,
2007-03-07, 01:16:00,VALID,915.627,VALID,0,VALID,94.1331,VALID,-0.0849042,VALID,18.8678,VALID,4,VALID,0.493546,
2007-03-07, 01:17:00,VALID,915.611,VALID,0,VALID,93.8126,VALID,-0.0679233,VALID,18.8966,VALID,4,VALID,0.456395,
2007-03-07, 01:18:00,VALID,915.61,VALID,0,VALID,93.5151,VALID,-0.0679233,VALID,18.8968,VALID,4,VALID,0.303445,
2007-03-07, 01:19:00,VALID,915.61,VALID,0,VALID,93.5609,VALID,-0.0509425,VALID,18.8968,VALID,4,VALID,0.4246,
2007-03-07, 01:20:00,VALID,915.627,VALID,0,VALID,93.6257,VALID,-0.0339617,VALID,18.8998,VALID,4,VALID,0.484197,
2007-03-07, 01:21:00,VALID,915.633,VALID,0,VALID,93.5062,VALID,-0.0509425,VALID,18.91,VALID,4,VALID,0.290879,
2007-03-07, 01:22:00,VALID,915.658,VALID,0,VALID,93.5863,VALID,-0.0679233,VALID,18.9068,VALID,4,VALID,0.423874,
2007-03-07, 01:23:00,VALID,915.653,VALID,0,VALID,93.5863,VALID,-0.0679233,VALID,18.9205,VALID,4,VALID,0.135356,
2007-03-07, 01:24:00,VALID,915.643,VALID,0,VALID,93.4655,VALID,-0.101885,VALID,18.891,VALID,4,VALID,0.303234,
2007-03-07, 01:25:00,VALID,915.639,VALID,0,VALID,93.8876,VALID,-0.101885,VALID,18.8813,VALID,4,VALID,0.539418,
2007-03-07, 01:26:00,VALID,915.666,VALID,0,VALID,93.7643,VALID,-0.0849042,VALID,18.8454,VALID,5,VALID,0.476372,
2007-03-07, 01:27:00,VALID,915.693,VALID,0,VALID,93.95,VALID,-0.101885,VALID,18.8361,VALID,5,VALID,0.136161,
2007-03-07, 01:28:00,VALID,915.698,VALID,0,VALID,94.3175,VALID,-0.101885,VALID,18.8194,VALID,9,VALID,0.41311,
2007-03-07, 01:29:00,VALID,915.696,VALID,0,VALID,94.2984,VALID,-0.0849042,VALID,18.8421,VALID,13,VALID,0.224787,
2007-03-07, 01:30:00,VALID,915.705,VALID,0,VALID,94.2297,VALID,-0.0849042,VALID,18.8391,VALID,13,VALID,0.258138,
2007-03-07, 01:31:00,VALID,915.722,VALID,0,VALID,94.2043,VALID,-0.0849042,VALID,18.8359,VALID,13,VALID,0.0824855,
2007-03-07, 01:32:00,VALID,915.713,VALID,0,VALID,94.1839,VALID,-0.0509425,VALID,18.8264,VALID,13,VALID,0.0875355,
2007-03-07, 01:33:00,VALID,915.714,VALID,0,VALID,94.4319,VALID,-0.101885,VALID,18.8294,VALID,13,VALID,0.248884,
2007-03-07, 01:34:00,VALID,915.696,VALID,0,VALID,94.4103,VALID,-0.0679233,VALID,18.8549,VALID,13,VALID,0.141197,
2007-03-07, 01:35:00,VALID,915.689,VALID,0,VALID,94.3187,VALID,-0.0679233,VALID,18.888,VALID,13,VALID,0.318452,
2007-03-07, 01:36:00,VALID,915.67,VALID,0,VALID,94.2386,VALID,-0.0849042,VALID,18.8943,VALID,23,VALID,0.655849,
2007-03-07, 01:37:00,VALID,915.669,VALID,0,VALID,93.9258,VALID,-0.0339617,VALID,18.8576,VALID,31,VALID,0.74343,
2007-03-07, 01:38:00,VALID,915.667,VALID,0,VALID,94.4294,VALID,-0.0339617,VALID,18.8778,VALID,39,VALID,0.872275,
2007-03-07, 01:39:00,VALID,915.69,VALID,0,VALID,94.6582,VALID,-0.0169808,VALID,18.9068,VALID,39,VALID,0.656867,
2007-03-07, 01:40:00,VALID,915.688,VALID,0,VALID,94.7244,VALID,-0.0509425,VALID,18.9427,VALID,39,VALID,0.651367,
2007-03-07, 01:41:00,VALID,915.684,VALID,0,VALID,94.4408,VALID,-0.0679233,VALID,18.9629,VALID,39,VALID,0.835938,
2007-03-07, 01:42:00,VALID,915.659,VALID,0,VALID,94.0313,VALID,-0.0849042,VALID,18.9,VALID,38,VALID,1.05957,
2007-03-07, 01:43:00,VALID,915.626,VALID,0,VALID,94.8236,VALID,-0.0509425,VALID,18.8841,VALID,32,VALID,1.28161,
2007-03-07, 01:44:00,VALID,915.598,VALID,0,VALID,95.35,VALID,-0.0169808,VALID,18.9063,VALID,43,VALID,1.13516,
2007-03-07, 01:45:00,VALID,915.584,VALID,0,VALID,95.1122,VALID,0,VALID,18.9091,VALID,37,VALID,0.603299,
2007-03-07, 01:46:00,VALID,915.563,VALID,0,VALID,95.2559,VALID,0,VALID,18.9028,VALID,39,VALID,0.181108,
2007-03-07, 01:47:00,VALID,915.554,VALID,0,VALID,95.2063,VALID,-0.0339617,VALID,18.9195,VALID,39,VALID,0.0412946,
2007-03-07, 01:48:00,VALID,915.53,VALID,0,VALID,95.3271,VALID,0,VALID,18.9128,VALID,27,VALID,0.31994,
2007-03-07, 01:49:00,VALID,915.517,VALID,0,VALID,95.4594,VALID,0,VALID,18.9355,VALID,16,VALID,0.281994,
2007-03-07, 01:50:00,VALID,915.513,VALID,0,VALID,95.7912,VALID,-0.0339617,VALID,18.9744,VALID,24,VALID,0.631324,
2007-03-07, 01:51:00,VALID,915.496,VALID,0,VALID,95.7912,VALID,0,VALID,19.0231,VALID,30,VALID,0.621804,
2007-03-07, 01:52:00,VALID,915.461,VALID,0,VALID,95.6959,VALID,-0.0169808,VALID,19.0068,VALID,30,VALID,0.973189,
2007-03-07, 01:53:00,VALID,915.436,VALID,0,VALID,95.8968,VALID,0,VALID,18.9871,VALID,39,VALID,1.05831,
2007-03-07, 01:54:00,VALID,915.408,VALID,0,VALID,95.9337,VALID,0,VALID,18.9547,VALID,40,VALID,1.10861,
2007-03-07, 01:55:00,VALID,915.401,VALID,0,VALID,96.4652,VALID,0.0169808,VALID,18.9387,VALID,42,VALID,1.17485,
2007-03-07, 01:56:00,VALID,915.397,VALID,0,VALID,96.5987,VALID,0,VALID,18.922,VALID,39,VALID,0.703869,
2007-03-07, 01:57:00,VALID,915.402,VALID,0,VALID,96.2439,VALID,-0.0169808,VALID,18.8799,VALID,34,VALID,0.64974,
2007-03-07, 01:58:00,VALID,915.385,VALID,0,VALID,96.6559,VALID,0,VALID,18.8474,VALID,22,VALID,0.655869,
2007-03-07, 01:59:00,VALID,915.382,VALID,0,VALID,96.5428,VALID,0,VALID,18.802,VALID,21,VALID,0.726563,
2007-03-07, 02:00:00,VALID,915.362,VALID,0,VALID,97.3464,VALID,0,VALID,18.8222,VALID,28,VALID,0.880394,
2007-03-07, 02:01:00,VALID,915.347,VALID,0,VALID,97.6351,VALID,0,VALID,18.8182,VALID,26,VALID,1.07533,
2007-03-07, 02:02:00,VALID,915.342,VALID,0,VALID,98.1869,VALID,0,VALID,18.8898,VALID,31,VALID,0.887305,
2007-03-07, 02:03:00,VALID,915.335,VALID,0,VALID,98.426,VALID,0.0339617,VALID,18.9512,VALID,41,VALID,0.639382,
2007-03-07, 02:04:00,VALID,915.3,VALID,0,VALID,98.1653,VALID,0,VALID,18.9839,VALID,36,VALID,0.520312,
2007-03-07, 02:05:00,VALID,915.269,VALID,0,VALID,98.1221,VALID,0,VALID,18.9966,VALID,24,VALID,0.650856,
2007-03-07, 02:06:00,VALID,915.223,VALID,0,VALID,97.8779,VALID,0.0169808,VALID,19.0163,VALID,24,VALID,0.517187,
2007-03-07, 02:07:00,VALID,915.191,VALID,0,VALID,97.7406,VALID,0,VALID,18.9774,VALID,24,VALID,0.494978,
2007-03-07, 02:08:00,VALID,915.181,VALID,0,VALID,97.8958,VALID,-0.0509425,VALID,18.9772,VALID,24,VALID,0.453307,
2007-03-07, 02:09:00,VALID,915.175,VALID,0,VALID,98.2098,VALID,0,VALID,19.0136,VALID,22,VALID,0.38151,
2007-03-07, 02:10:00,VALID,915.161,VALID,0,VALID,98.3446,VALID,0,VALID,19.036,VALID,21,VALID,0.396484,
2007-03-07, 02:11:00,VALID,915.142,VALID,0,VALID,98.262,VALID,-0.0339617,VALID,19.052,VALID,20,VALID,0.262091,
2007-03-07, 02:12:00,VALID,915.111,VALID,0,VALID,98.1437,VALID,-0.0169808,VALID,19.0458,VALID,360,VALID,0.211664,
2007-03-07, 02:13:00,VALID,915.079,VALID,0,VALID,98.1386,VALID,-0.0169808,VALID,19.065,VALID,329,VALID,0.306771,
2007-03-07, 02:14:00,VALID,915.049,VALID,0,VALID,98.192,VALID,0,VALID,19.0747,VALID,1,VALID,0.340234,
2007-03-07, 02:15:00,VALID,915.028,VALID,0,VALID,98.6752,VALID,-0.0509425,VALID,19.1269,VALID,11,VALID,0.392624,
2007-03-07, 02:16:00,VALID,915.011,VALID,0,VALID,99.0211,VALID,-0.0339617,VALID,19.2142,VALID,39,VALID,0.379416,
2007-03-07, 02:17:00,VALID,915.009,VALID,0,VALID,98.8774,VALID,-0.0169808,VALID,19.2823,VALID,43,VALID,0,
2007-03-07, 02:18:00,VALID,915.022,VALID,0,VALID,98.5913,VALID,0,VALID,19.292,VALID,43,VALID,0.125533,
2007-03-07, 02:19:00,VALID,915.003,VALID,0,VALID,98.5392,VALID,0,VALID,19.3018,VALID,43,VALID,0.282366,
2007-03-07, 02:20:00,VALID,914.99,VALID,0,VALID,98.0496,VALID,0,VALID,19.2793,VALID,43,VALID,0.131696,
2007-03-07, 02:21:00,VALID,915.005,VALID,0,VALID,97.6719,VALID,-0.0169808,VALID,19.2172,VALID,43,VALID,0.594815,
2007-03-07, 02:22:00,VALID,915.021,VALID,0,VALID,98.5405,VALID,0,VALID,19.2204,VALID,43,VALID,0.555246,
2007-03-07, 02:23:00,VALID,915.04,VALID,0,VALID,98.6117,VALID,0.0169808,VALID,19.2726,VALID,43,VALID,0.151643,
2007-03-07, 02:24:00,VALID,915.043,VALID,0,VALID,98.6422,VALID,0.0169808,VALID,19.2791,VALID,43,VALID,0,
2007-03-07, 02:25:00,VALID,915.052,VALID,0,VALID,98.6562,VALID,0.0509425,VALID,19.2721,VALID,43,VALID,0,
2007-03-07, 02:26:00,VALID,915.023,VALID,0,VALID,98.8596,VALID,-0.0169808,VALID,19.305,VALID,43,VALID,0.0404647,
2007-03-07, 02:27:00,VALID,915.006,VALID,0,VALID,98.4642,VALID,0,VALID,19.2916,VALID,43,VALID,0.11942,
2007-03-07, 02:28:00,VALID,914.994,VALID,0,VALID,98.6562,VALID,0,VALID,19.2526,VALID,43,VALID,0.170987,
2007-03-07, 02:29:00,VALID,914.981,VALID,0,VALID,98.6702,VALID,0.0169808,VALID,19.2693,VALID,43,VALID,0.040483,
2007-03-07, 02:30:00,VALID,914.971,VALID,0,VALID,98.178,VALID,-0.0169808,VALID,19.2272,VALID,43,VALID,0.000181686,
2007-03-07, 02:31:00,VALID,914.982,VALID,0,VALID,98.5824,VALID,0,VALID,19.1945,VALID,42,VALID,0.225991,
2007-03-07, 02:32:00,VALID,914.971,VALID,0,VALID,98.6028,VALID,0,VALID,19.1915,VALID,42,VALID,0,
2007-03-07, 02:33:00,VALID,914.976,VALID,0,VALID,98.3497,VALID,0.0169808,VALID,19.1491,VALID,42,VALID,0,
2007-03-07, 02:34:00,VALID,914.969,VALID,0,VALID,98.3624,VALID,0,VALID,19.0909,VALID,42,VALID,0,
2007-03-07, 02:35:00,VALID,914.947,VALID,0,VALID,98.688,VALID,-0.0169808,VALID,19.0782,VALID,42,VALID,0,
2007-03-07, 02:36:00,VALID,914.918,VALID,0,VALID,98.9855,VALID,-0.0169808,VALID,19.0717,VALID,42,VALID,0,
2007-03-07, 02:37:00,VALID,914.91,VALID,0,VALID,99.1292,VALID,-0.0169808,VALID,19.0685,VALID,42,VALID,0.0910866,
2007-03-07, 02:38:00,VALID,914.892,VALID,0,VALID,99.2119,VALID,-0.0169808,VALID,19.0295,VALID,42,VALID,0.25,
2007-03-07, 02:39:00,VALID,914.905,VALID,0,VALID,99.3492,VALID,-0.0169808,VALID,19.0098,VALID,42,VALID,0.266026,
2007-03-07, 02:40:00,VALID,914.907,VALID,0,VALID,99.5209,VALID,0,VALID,18.9674,VALID,43,VALID,0.0993546,
2007-03-07, 02:41:00,VALID,914.894,VALID,0,VALID,99.5196,VALID,0,VALID,18.932,VALID,42,VALID,0,
2007-03-07, 02:42:00,VALID,914.873,VALID,0,VALID,99.3644,VALID,-0.0169808,VALID,18.8766,VALID,42,VALID,0,
2007-03-07, 02:43:00,VALID,914.873,VALID,0,VALID,99.0949,VALID,0,VALID,18.796,VALID,42,VALID,0.134448,
2007-03-07, 02:44:00,VALID,914.858,VALID,0,VALID,99.6836,VALID,0,VALID,18.7668,VALID,42,VALID,0.547805,
2007-03-07, 02:45:00,VALID,914.849,VALID,0,VALID,100,VALID,-0.0169808,VALID,18.7895,VALID,42,VALID,0.454993,
2007-03-07, 02:46:00,VALID,914.85,VALID,0,VALID,100,VALID,-0.0169808,VALID,18.7863,VALID,42,VALID,0.216488,
2007-03-07, 02:47:00,VALID,914.852,VALID,0,VALID,100,VALID,-0.0339617,VALID,18.7636,VALID,42,VALID,0.14234,
2007-03-07, 02:48:00,VALID,914.84,VALID,0,VALID,100,VALID,0,VALID,18.7701,VALID,14,VALID,0.393576,
2007-03-07, 02:49:00,VALID,914.824,VALID,0,VALID,100,VALID,-0.0509425,VALID,18.7376,VALID,8,VALID,0.196646,
2007-03-07, 02:50:00,VALID,914.809,VALID,0,VALID,100,VALID,0,VALID,18.7573,VALID,5,VALID,0.338423,
2007-03-07, 02:51:00,VALID,914.8,VALID,0,VALID,100,VALID,-0.0169808,VALID,18.7701,VALID,1,VALID,0.243862,
2007-03-07, 02:52:00,VALID,914.784,VALID,0,VALID,100,VALID,-0.0169808,VALID,18.7606,VALID,353,VALID,0.378811,
2007-03-07, 02:53:00,VALID,914.77,VALID,0,VALID,100,VALID,-0.0339617,VALID,18.7668,VALID,349,VALID,0.0442708,
2007-03-07, 02:54:00,VALID,914.76,VALID,0,VALID,100,VALID,0,VALID,18.7603,VALID,349,VALID,0,
2007-03-07, 02:55:00,VALID,914.761,VALID,0,VALID,100,VALID,-0.0169808,VALID,18.7439,VALID,349,VALID,0,
2007-03-07, 02:56:00,VALID,914.764,VALID,0,VALID,100,VALID,0.0169808,VALID,18.7534,VALID,349,VALID,0,
2007-03-07, 02:57:00,VALID,914.754,VALID,0,VALID,100,VALID,0.0169808,VALID,18.7374,VALID,349,VALID,0,
2007-03-07, 02:58:00,VALID,914.757,VALID,0,VALID,100,VALID,0.0339617,VALID,18.685,VALID,349,VALID,0,
2007-03-07, 02:59:00,VALID,914.743,VALID,0,VALID,100,VALID,0.0339617,VALID,18.6755,VALID,349,VALID,0,
2007-03-07, 03:00:00,VALID,914.734,VALID,0,VALID,100,VALID,0,VALID,18.6593,VALID,349,VALID,0,
2007-03-07, 03:01:00,VALID,914.714,VALID,0,VALID,100,VALID,0.0339617,VALID,18.666,VALID,349,VALID,0,
2007-03-07, 03:02:00,VALID,914.692,VALID,0,VALID,100,VALID,0.0169808,VALID,18.6982,VALID,349,VALID,0,
2007-03-07, 03:03:00,VALID,914.678,VALID,0,VALID,100,VALID,0.0509425,VALID,18.7082,VALID,349,VALID,0,
2007-03-07, 03:04:00,VALID,914.664,VALID,0,VALID,99.9939,VALID,0.0169808,VALID,18.6565,VALID,349,VALID,0.074929,
2007-03-07, 03:05:00,VALID,914.68,VALID,0,VALID,99.9812,VALID,0.0339617,VALID,18.5456,VALID,349,VALID,0.319041,
2007-03-07, 03:06:00,VALID,914.695,VALID,0,VALID,100,VALID,0.0339617,VALID,18.5168,VALID,349,VALID,0.216797,
2007-03-07, 03:07:00,VALID,914.711,VALID,0,VALID,100,VALID,0.0339617,VALID,18.4677,VALID,349,VALID,0.338605,
2007-03-07, 03:08:00,VALID,914.702,VALID,0,VALID,100,VALID,-0.0169808,VALID,18.5071,VALID,349,VALID,0.426562,
2007-03-07, 03:09:00,VALID,914.702,VALID,0,VALID,100,VALID,0,VALID,18.5653,VALID,349,VALID,0.300391,
2007-03-07, 03:10:00,VALID,914.717,VALID,0,VALID,100,VALID,0,VALID,18.5166,VALID,349,VALID,0.266578,
2007-03-07, 03:11:00,VALID,914.706,VALID,0,VALID,100,VALID,0,VALID,18.5231,VALID,349,VALID,0.251776,
2007-03-07, 03:12:00,VALID,914.711,VALID,0,VALID,100,VALID,0,VALID,18.5949,VALID,349,VALID,0.0109375,
2007-03-07, 03:13:00,VALID,914.722,VALID,0,VALID,100,VALID,-0.0169808,VALID,18.6274,VALID,349,VALID,0,
2007-03-07, 03:14:00,VALID,914.724,VALID,0,VALID,100,VALID,0.0169808,VALID,18.6077,VALID,349,VALID,0,
2007-03-07, 03:15:00,VALID,914.714,VALID,0,VALID,100,VALID,-0.0169808,VALID,18.5977,VALID,349,VALID,0.138445,
2007-03-07, 03:16:00,VALID,914.72,VALID,0,VALID,100,VALID,0,VALID,18.6014,VALID,349,VALID,0.256392,
2007-03-07, 03:17:00,VALID,914.734,VALID,0,VALID,100,VALID,0,VALID,18.6016,VALID,349,VALID,0.0470655,
2007-03-07, 03:18:00,VALID,914.722,VALID,0,VALID,100,VALID,0,VALID,18.5852,VALID,349,VALID,0.0290891,
2007-03-07, 03:19:00,VALID,914.738,VALID,0,VALID,100,VALID,0,VALID,18.6236,VALID,349,VALID,0,
2007-03-07, 03:20:00,VALID,914.727,VALID,0,VALID,100,VALID,-0.0169808,VALID,18.679,VALID,349,VALID,0,
2007-03-07, 03:21:00,VALID,914.721,VALID,0,VALID,100,VALID,0,VALID,18.692,VALID,349,VALID,0,
2007-03-07, 03:22:00,VALID,914.69,VALID,0,VALID,100,VALID,0,VALID,18.6653,VALID,349,VALID,0,
2007-03-07, 03:23:00,VALID,914.67,VALID,0,VALID,100,VALID,0.0169808,VALID,18.6271,VALID,349,VALID,0,
2007-03-07, 03:24:00,VALID,914.642,VALID,0,VALID,100,VALID,0.0169808,VALID,18.5977,VALID,349,VALID,0,
2007-03-07, 03:25:00,VALID,914.643,VALID,0,VALID,100,VALID,0,VALID,18.5942,VALID,349,VALID,0,
2007-03-07, 03:26:00,VALID,914.635,VALID,0,VALID,100,VALID,0.0169808,VALID,18.6429,VALID,349,VALID,0,
2007-03-07, 03:27:00,VALID,914.623,VALID,0,VALID,100,VALID,0,VALID,18.6039,VALID,349,VALID,0,
2007-03-07, 03:28:00,VALID,914.626,VALID,0,VALID,100,VALID,0,VALID,18.591,VALID,349,VALID,0.112216,
2007-03-07, 03:29:00,VALID,914.633,VALID,0,VALID,100,VALID,-0.0169808,VALID,18.6174,VALID,350,VALID,0.25327,
2007-03-07, 03:30:00,VALID,914.661,VALID,0,VALID,100,VALID,0,VALID,18.6693,VALID,352,VALID,0.477751,
2007-03-07, 03:31:00,VALID,914.675,VALID,0,VALID,100,VALID,0.0339617,VALID,18.7341,VALID,357,VALID,0.58505,
2007-03-07, 03:32:00,VALID,914.678,VALID,0,VALID,100,VALID,0.0509425,VALID,18.714,VALID,3,VALID,0.734557,
2007-03-07, 03:33:00,VALID,914.667,VALID,0,VALID,100,VALID,0,VALID,18.7601,VALID,25,VALID,0.932776,
2007-03-07, 03:34:00,VALID,914.655,VALID,0,VALID,100,VALID,0,VALID,18.805,VALID,29,VALID,0.918786,
2007-03-07, 03:35:00,VALID,914.661,VALID,0,VALID,100,VALID,-0.0169808,VALID,18.8542,VALID,29,VALID,0.887767,
2007-03-07, 03:36:00,VALID,914.657,VALID,0,VALID,100,VALID,0,VALID,18.8507,VALID,24,VALID,0.952714,
2007-03-07, 03:37:00,VALID,914.644,VALID,0,VALID,100,VALID,0,VALID,18.8634,VALID,26,VALID,0.895008,
2007-03-07, 03:38:00,VALID,914.669,VALID,0,VALID,100,VALID,-0.0169808,VALID,18.8409,VALID,25,VALID,0.789844,
2007-03-07, 03:39:00,VALID,914.669,VALID,0,VALID,100,VALID,0.0169808,VALID,18.808,VALID,21,VALID,0.769159,
2007-03-07, 03:40:00,VALID,914.668,VALID,0,VALID,99.9728,VALID,0,VALID,18.7858,VALID,21,VALID,0.530401,
2007-03-07, 03:41:00,VALID,914.643,VALID,0,VALID,99.7103,VALID,0,VALID,18.7304,VALID,21,VALID,0.561756,